Regional Weather Roundup
Issued by NWS

Home | Current Version | Previous Version | Text Only | Print | Product List | Glossary Off
Versions: 1 2 3 4 5 6 7 8 9 10 11 12 13 14 15 16 17 18 19 20 21 22 23 24 25 26 27 28 29 30 31 32 33 34 35 36 37 38 39 40 41 42 43 44 45 46 47 48 49 50

000
ASUS43 KIND 030059
RWRIN

WEATHER ROUNDUP FOR INDIANA
NATIONAL WEATHER SERVICE INDIANAPOLIS IN
900 PM EDT TUE JUN 02 2015

NOTE: "FAIR" INDICATES FEW OR NO CLOUDS BELOW 12,000 FEET WITH NO
SIGNIFICANT WEATHER AND/OR OBSTRUCTIONS TO VISIBILITY.

* - STATION DOES NOT REPORT WEATHER SUCH AS PRECIPITATION OR FOG.

+ - STATION NOT QUALITY CONTROLLED BY THE NATIONAL WEATHER SERVICE.
    USE DATA WITH CAUTION...ESPECIALLY DEWPOINT AND RELATIVE
    HUMIDITY OBSERVATIONS.

INZ001>003-010>013-019-020-030200-
NORTHWEST INDIANA

CITY           SKY/WX    TMP DP  RH WIND       PRES   REMARKS
GARY /AIRPORT/ MOCLDY    57  48  72 NE7       30.10S
RENSSELAER +   CLEAR     64  52  63 SE8       30.09S

$$

LMZ046-743>745-030200-
SOUTHERN LAKE MICHIGAN

STATION/POSITION TIME  TEMP    WIND        PRES    WAVE
                       AIR SEA DIR/SP/G            HT
                 (UTC) (F)     (DEG/KT/KT) (MB)    (FT)
BURNS HARBOR     0000           60/  9/ 11 1019.6S
MICHIGAN CITY    0000   56      20/  9/ 11   N/A
5NW MICH CITY    0000   55 56   70/  8/ 10   N/A     1

$$

INZ004-005-014>016-021>024-030200-
NORTH CENTRAL INDIANA

CITY           SKY/WX    TMP DP  RH WIND       PRES   REMARKS
ELKHART        CLEAR     66  48  52 SE5       30.10S
GOSHEN         CLEAR     65  51  60 E5        30.10S
PERU/GRISSOM   CLEAR     64  54  70 E5        30.09S
SOUTH BEND     CLEAR     68  48  48 E8        30.10S

$$

INZ006>009-017-018-025>027-030200-
NORTHEAST INDIANA

CITY           SKY/WX    TMP DP  RH WIND       PRES   REMARKS
ANGOLA *+      CLEAR     63  46  55 E8        30.13R
FORT WAYNE     PTCLDY    61  51  70 E9        30.12R

$$

INZ028-029-035-036-043>045-051>053-030200-
WEST CENTRAL INDIANA

CITY           SKY/WX    TMP DP  RH WIND       PRES   REMARKS
CRAWFORDSVL +  CLEAR     61  49  66 E9        30.10R
GREENCASTLE +  CLEAR     63  50  63 SE7       30.10R
LAFAYETTE      CLEAR     60  53  77 E9        30.09R
TERRE HAUTE    CLEAR     67  54  63 E6        30.06R

$$

INZ030>032-037>040-046>048-054>057-064-065-030200-
CENTRAL INDIANA

CITY           SKY/WX    TMP DP  RH WIND       PRES   REMARKS
COLUMBUS       CLOUDY    59  50  72 NE8       30.11R
GREENWOOD *+   CLOUDY    61  48  63 E7        30.11R
INDIANAPOLIS   PTCLDY    61  50  67 E9        30.09R
-EAGLE CREEK   PTCLDY    61  51  70 E6        30.10R
KOKOMO *+      CLEAR     63  54  72 SE5       30.10S
MT COMFORT *+  CLOUDY    61  46  59 SE3       30.10S
SHELBYVILLE    CLOUDY    63  53  70 NE6       30.10R

$$

INZ033-034-041-042-049-050-058-059-030200-
EAST CENTRAL INDIANA

CITY           SKY/WX    TMP DP  RH WIND       PRES   REMARKS
MUNCIE         CLOUDY    63  54  72 E3        30.10S

$$

INZ060-061-067>069-081>083-085>088-030200-
SOUTHWEST INDIANA

CITY           SKY/WX    TMP DP  RH WIND       PRES   REMARKS
EVANSVILLE     CLEAR     63  56  78 W3        30.07S
HUNTINGBURG *+ CLEAR     66  55  68 SE3       30.07R

$$

INZ062-063-066-070>080-084-089>092-030200-
SOUTH CENTRAL AND SOUTHEAST INDIANA

CITY           SKY/WX    TMP DP  RH WIND       PRES   REMARKS
BLOOMINGTON    CLEAR     63  54  72 E8        30.09R
MADISON *+     CLOUDY    59  50  72 NE5       30.12S
SEYMOUR +      CLOUDY    63  54  72 NE10      30.10R

$$




USA.gov is the U.S. government's official web portal to all federal, state and local government web resources and services.